"Sample Date","Sample Time","Sample Value","Units","Flow Rate","Sample Interval","Number Channels","Micron Size 0","Counts/Channel 0","Micron Size 1","Counts/Channel 1","Micron Size 2","Counts/Channel 2","Micron Size 3","Counts/Channel 3","Micron Size 4","Counts/Channel 4","Micron Size 5","Counts/Channel 5","Micron Size 6","Counts/Channel 6","Micron Size 7","Counts/Channel 7","Micron Size 8","Counts/Channel 8","Micron Size 9","Counts/Channel 9","Micron Size 10","Counts/Channel 10","Micron Size 11","Counts/Channel 11","Micron Size 12","Counts/Channel 12","Micron Size 13","Counts/Channel 13","Micron Size 14","Counts/Channel 14","Micron Size 15","Counts/Channel 15","Micron Size 16","Counts/Channel 16","Micron Size 17","Counts/Channel 17","Micron Size 18","Counts/Channel 18","Micron Size 19","Counts/Channel 19","Micron Size 20","Counts/Channel 20","Micron Size 21","Counts/Channel 21","Micron Size 22","Counts/Channel 22","Micron Size 23","Counts/Channel 23","Micron Size 24","Counts/Channel 24","Micron Size 25","Counts/Channel 25","Micron Size 26","Counts/Channel 26","Micron Size 27","Counts/Channel 27","Micron Size 28","Counts/Channel 28","Micron Size 29","Counts/Channel 29","Micron Size 30","Counts/Channel 30","Micron Size 31","Counts/Channel 31"
"03/09/08","07:00:03",240120.000,"cc",28378.209,6.00,6,0.100,179268.000,0.200,57573.000,0.300,2794.000,0.500,430.000,1.000,55.000,5.000,0
"03/09/08","07:00:09",263002.000,"cc",28310.328,6.00,6,0.100,218759.000,0.200,41809.000,0.300,2089.000,0.500,316.000,1.000,29.000,5.000,0
"03/09/08","07:00:15",295727.000,"cc",28269.840,6.00,6,0.100,261646.000,0.200,31809.000,0.300,1742.000,0.500,468.000,1.000,62.000,5.000,0
"03/09/08","07:00:21",327434.000,"cc",28284.430,6.00,6,0.100,289673.000,0.200,35559.000,0.300,1810.000,0.500,348.000,1.000,44.000,5.000,0
"03/09/08","07:00:27",301807.000,"cc",28321.785,6.00,6,0.100,254611.000,0.200,44377.000,0.300,2358.000,0.500,418.000,1.000,43.000,5.000,0
"03/09/08","07:00:33",401061.000,"cc",28292.977,6.00,6,0.100,350065.000,0.200,48260.000,0.300,2295.000,0.500,393.000,1.000,48.000,5.000,0
"03/09/08","07:00:39",255176.000,"cc",28362.457,6.00,6,0.100,217538.000,0.200,35386.000,0.300,1844.000,0.500,354.000,1.000,54.000,5.000,0
"03/09/08","07:00:45",196709.000,"cc",28271.334,6.00,6,0.100,161099.000,0.200,33199.000,0.300,1983.000,0.500,380.000,1.000,48.000,5.000,0
"03/09/08","07:00:51",167409.000,"cc",28268.922,6.00,6,0.100,75402.000,0.200,86548.000,0.300,4805.000,0.500,584.000,1.000,70.000,5.000,0
"03/09/08","07:00:57",409325.000,"cc",28381.068,6.00,6,0.100,352474.000,0.200,53328.000,0.300,2965.000,0.500,497.000,1.000,61.000,5.000,0
"03/09/08","07:01:03",272458.000,"cc",28290.772,6.00,6,0.100,241641.000,0.200,28655.000,0.300,1729.000,0.500,388.000,1.000,45.000,5.000,0
"03/09/08","07:01:09",342041.000,"cc",28303.895,6.00,6,0.100,300900.000,0.200,38484.000,0.300,2205.000,0.500,406.000,1.000,46.000,5.000,0
"03/09/08","07:01:15",354469.000,"cc",28289.262,6.00,6,0.100,311282.000,0.200,40628.000,0.300,2118.000,0.500,399.000,1.000,42.000,5.000,0
"03/09/08","07:01:21",367134.000,"cc",28355.650,6.00,6,0.100,321959.000,0.200,42494.000,0.300,2238.000,0.500,390.000,1.000,53.000,5.000,0
"03/09/08","07:01:27",196748.000,"cc",28357.293,6.00,6,0.100,129275.000,0.200,63805.000,0.300,3176.000,0.500,438.000,1.000,54.000,5.000,0
"03/09/08","07:01:33",396714.000,"cc",28287.402,6.00,6,0.100,345054.000,0.200,48341.000,0.300,2714.000,0.500,523.000,1.000,82.000,5.000,0
"03/09/08","07:01:39",358835.000,"cc",28301.029,6.00,6,0.100,301490.000,0.200,53499.000,0.300,3057.000,0.500,687.000,1.000,102.000,5.000,0
"03/09/08","07:01:45",243446.000,"cc",28300.648,6.00,6,0.100,203652.000,0.200,36691.000,0.300,2401.000,0.500,632.000,1.000,70.000,5.000,0
"03/09/08","07:01:51",207999.000,"cc",28344.330,6.00,6,0.100,160689.000,0.200,43429.000,0.300,2936.000,0.500,834.000,1.000,111.000,5.000,0
"03/09/08","07:01:57",310008.000,"cc",28241.680,6.00,6,0.100,259984.000,0.200,46525.000,0.300,2783.000,0.500,624.000,1.000,92.000,5.000,0
"03/09/08","07:02:03",238694.000,"cc",28330.652,6.00,6,0.100,153093.000,0.200,80072.000,0.300,4644.000,0.500,771.000,1.000,114.000,5.000,0
"03/09/08","07:02:09",236717.000,"cc",28362.732,6.00,6,0.100,150860.000,0.200,80528.000,0.300,4494.000,0.500,744.000,1.000,91.000,5.000,0
"03/09/08","07:02:15",341015.000,"cc",28295.338,6.00,6,0.100,299796.000,0.200,38590.000,0.300,2124.000,0.500,449.000,1.000,56.000,5.000,0
"03/09/08","07:02:21",266320.000,"cc",28270.934,6.00,6,0.100,237172.000,0.200,27175.000,0.300,1612.000,0.500,329.000,1.000,32.000,5.000,0
"03/09/08","07:02:27",267086.000,"cc",28359.959,6.00,6,0.100,237188.000,0.200,27520.000,0.300,1887.000,0.500,450.000,1.000,41.000,5.000,0
"03/09/08","07:02:33",256335.000,"cc",28306.113,6.00,6,0.100,227391.000,0.200,26412.000,0.300,1889.000,0.500,554.000,1.000,89.000,5.000,0
"03/09/08","07:02:39",229330.000,"cc",28330.902,6.00,6,0.100,204320.000,0.200,22867.000,0.300,1635.000,0.500,431.000,1.000,77.000,5.000,0
"03/09/08","07:02:45",241519.000,"cc",28319.190,6.00,6,0.100,214779.000,0.200,24647.000,0.300,1552.000,0.500,464.000,1.000,77.000,5.000,0
"03/09/08","07:02:51",201621.000,"cc",28295.066,6.00,6,0.100,180636.000,0.200,19214.000,0.300,1315.000,0.500,396.000,1.000,60.000,5.000,0
"03/09/08","07:02:57",352878.000,"cc",28287.576,6.00,6,0.100,310147.000,0.200,39251.000,0.300,2595.000,0.500,755.000,1.000,130.000,5.000,0
"03/09/08","07:03:03",239389.000,"cc",28312.662,6.00,6,0.100,213541.000,0.200,23535.000,0.300,1703.000,0.500,532.000,1.000,78.000,5.000,0
"03/09/08","07:03:09",228397.000,"cc",28313.012,6.00,6,0.100,203724.000,0.200,22658.000,0.300,1516.000,0.500,436.000,1.000,63.000,5.000,0
"03/09/08","07:03:15",246305.000,"cc",28285.787,6.00,6,0.100,209052.000,0.200,35091.000,0.300,1798.000,0.500,336.000,1.000,28.000,5.000,0
"03/09/08","07:03:21",259636.000,"cc",28311.742,6.00,6,0.100,218675.000,0.200,38516.000,0.300,2004.000,0.500,386.000,1.000,55.000,5.000,0
"03/09/08","07:03:27",328549.000,"cc",28399.947,6.00,6,0.100,278441.000,0.200,47372.000,0.300,2259.000,0.500,430.000,1.000,47.000,5.000,0
"03/09/08","07:03:33",238380.000,"cc",28276.992,6.00,6,0.100,189071.000,0.200,46897.000,0.300,2147.000,0.500,244.000,1.000,21.000,5.000,0
"03/09/08","07:03:39",331093.000,"cc",28303.715,6.00,6,0.100,257664.000,0.200,69743.000,0.300,3350.000,0.500,308.000,1.000,28.000,5.000,0
"03/09/08","07:03:45",368557.000,"cc",28363.139,6.00,6,0.100,308262.000,0.200,57210.000,0.300,2770.000,0.500,288.000,1.000,27.000,5.000,0
"03/09/08","07:03:51",331047.000,"cc",28291.180,6.00,6,0.100,290770.000,0.200,38100.000,0.300,1907.000,0.500,241.000,1.000,29.000,5.000,0
"03/09/08","07:03:57",328287.000,"cc",28317.119,6.00,6,0.100,275118.000,0.200,50055.000,0.300,2691.000,0.500,387.000,1.000,36.000,5.000,0
"03/09/08","07:04:03",310343.000,"cc",28313.881,6.00,6,0.100,272973.000,0.200,35231.000,0.300,1823.000,0.500,280.000,1.000,36.000,5.000,0
"03/09/08","07:04:09",253214.000,"cc",28315.049,6.00,6,0.100,225094.000,0.200,26456.000,0.300,1417.000,0.500,220.000,1.000,27.000,5.000,0
"03/09/08","07:04:15",197567.000,"cc",28316.627,6.00,6,0.100,177015.000,0.200,19369.000,0.300,1004.000,0.500,161.000,1.000,18.000,5.000,0
"03/09/08","07:04:21",190891.000,"cc",28341.715,6.00,6,0.100,169956.000,0.200,19426.000,0.300,1263.000,0.500,211.000,1.000,35.000,5.000,0
"03/09/08","07:04:27",167641.000,"cc",28327.684,6.00,6,0.100,149821.000,0.200,16579.000,0.300,1018.000,0.500,191.000,1.000,32.000,5.000,0
"03/09/08","07:04:33",152352.000,"cc",28306.492,6.00,6,0.100,135821.000,0.200,15445.000,0.300,917.000,0.500,154.000,1.000,15.000,5.000,0
"03/09/08","07:04:39",159988.000,"cc",28331.033,6.00,6,0.100,143052.000,0.200,15626.000,0.300,1069.000,0.500,221.000,1.000,20.000,5.000,0
"03/09/08","07:04:45",176081.000,"cc",28340.482,6.00,6,0.100,157380.000,0.200,17516.000,0.300,978.000,0.500,186.000,1.000,21.000,5.000,0
"03/09/08","07:04:51",153573.000,"cc",28303.873,6.00,6,0.100,137479.000,0.200,15222.000,0.300,772.000,0.500,94.000,1.000,6.000,5.000,0
"03/09/08","07:04:57",73702.000,"cc",28258.717,6.00,6,0.100,66944.000,0.200,6246.000,0.300,415.000,0.500,80.000,1.000,17.000,5.000,0
"03/09/08","07:05:03",35606.000,"cc",28293.139,6.00,6,0.100,32691.000,0.200,2647.000,0.300,207.000,0.500,59.000,1.000,2.000,5.000,0
"03/09/08","07:05:09",31088.000,"cc",28399.232,6.00,6,0.100,28629.000,0.200,2180.000,0.300,211.000,0.500,55.000,1.000,13.000,5.000,0
"03/09/08","07:05:15",32602.000,"cc",28278.106,6.00,6,0.100,29909.000,0.200,2351.000,0.300,240.000,0.500,91.000,1.000,11.000,5.000,0
"03/09/08","07:05:21",24353.000,"cc",28292.451,6.00,6,0.100,22525.000,0.200,1608.000,0.300,149.000,0.500,60.000,1.000,11.000,5.000,0
"03/09/08","07:05:27",21980.000,"cc",28388.106,6.00,6,0.100,20502.000,0.200,1345.000,0.300,107.000,0.500,23.000,1.000,3.000,5.000,0
"03/09/08","07:05:33",22114.000,"cc",28289.916,6.00,6,0.100,20557.000,0.200,1406.000,0.300,121.000,0.500,27.000,1.000,3.000,5.000,0
"03/09/08","07:05:39",21750.000,"cc",28222.670,6.00,6,0.100,20314.000,0.200,1298.000,0.300,115.000,0.500,21.000,1.000,2.000,5.000,0
"03/09/08","07:05:45",21541.000,"cc",28340.203,6.00,6,0.100,20193.000,0.200,1223.000,0.300,104.000,0.500,18.000,1.000,3.000,5.000,0
"03/09/08","07:05:51",20893.000,"cc",28325.375,6.00,6,0.100,19542.000,0.200,1245.000,0.300,92.000,0.500,13.000,1.000,1.000,5.000,0
"03/09/08","07:05:57",20949.000,"cc",28407.436,6.00,6,0.100,19551.000,0.200,1281.000,0.300,106.000,0.500,9.000,1.000,2.000,5.000,0
"03/09/08","07:06:03",20573.000,"cc",28355.527,6.00,6,0.100,19292.000,0.200,1176.000,0.300,94.000,0.500,11.000,1.000,0,5.000,0
"03/09/08","07:06:09",20710.000,"cc",28417.793,6.00,6,0.100,19440.000,0.200,1170.000,0.300,95.000,0.500,5.000,1.000,0,5.000,0
"03/09/08","07:06:15",20101.000,"cc",28276.686,6.00,6,0.100,19000.000,0.200,1032.000,0.300,59.000,0.500,10.000,1.000,0,5.000,0
"03/09/08","07:06:21",19621.000,"cc",28301.342,6.00,6,0.100,18532.000,0.200,1027.000,0.300,54.000,0.500,8.000,1.000,0,5.000,0
"03/09/08","07:06:27",19786.000,"cc",28322.354,6.00,6,0.100,18672.000,0.200,1048.000,0.300,58.000,0.500,8.000,1.000,0,5.000,0
"03/09/08","07:06:33",19096.000,"cc",28339.813,6.00,6,0.100,18017.000,0.200,1022.000,0.300,52.000,0.500,5.000,1.000,0,5.000,0
"03/09/08","07:06:39",19435.000,"cc",28301.065,6.00,6,0.100,18389.000,0.200,970.000,0.300,67.000,0.500,9.000,1.000,0,5.000,0
"03/09/08","07:06:45",19308.000,"cc",28302.701,6.00,6,0.100,18263.000,0.200,979.000,0.300,60.000,0.500,5.000,1.000,1.000,5.000,0
"03/09/08","07:06:51",19427.000,"cc",28338.266,6.00,6,0.100,18399.000,0.200,964.000,0.300,54.000,0.500,10.000,1.000,0,5.000,0
"03/09/08","07:06:57",18522.000,"cc",28380.660,6.00,6,0.100,17510.000,0.200,937.000,0.300,67.000,0.500,8.000,1.000,0,5.000,0
"03/09/08","07:07:03",19718.000,"cc",28307.936,6.00,6,0.100,18665.000,0.200,990.000,0.300,55.000,0.500,8.000,1.000,0,5.000,0
"03/09/08","07:07:09",19891.000,"cc",28288.123,6.00,6,0.100,18763.000,0.200,1038.000,0.300,76.000,0.500,13.000,1.000,1.000,5.000,0
"03/09/08","07:07:15",20113.000,"cc",28265.209,6.00,6,0.100,18897.000,0.200,1084.000,0.300,115.000,0.500,16.000,1.000,1.000,5.000,0
"03/09/08","07:07:21",19749.000,"cc",28228.393,6.00,6,0.100,18668.000,0.200,1002.000,0.300,67.000,0.500,9.000,1.000,3.000,5.000,0
"03/09/08","07:07:27",19651.000,"cc",28251.588,6.00,6,0.100,18491.000,0.200,1041.000,0.300,98.000,0.500,19.000,1.000,2.000,5.000,0
"03/09/08","07:07:33",19327.000,"cc",28285.797,6.00,6,0.100,18144.000,0.200,1076.000,0.300,88.000,0.500,19.000,1.000,0,5.000,0
"03/09/08","07:07:39",19121.000,"cc",28334.639,6.00,6,0.100,18012.000,0.200,1015.000,0.300,84.000,0.500,10.000,1.000,0,5.000,0
"03/09/08","07:07:45",19318.000,"cc",28326.315,6.00,6,0.100,18127.000,0.200,1074.000,0.300,105.000,0.500,11.000,1.000,1.000,5.000,0
"03/09/08","07:07:51",19064.000,"cc",28286.875,6.00,6,0.100,17927.000,0.200,1042.000,0.300,83.000,0.500,12.000,1.000,0,5.000,0
"03/09/08","07:07:57",19216.000,"cc",28349.186,6.00,6,0.100,18026.000,0.200,1071.000,0.300,103.000,0.500,16.000,1.000,0,5.000,0
"03/09/08","07:08:03",19315.000,"cc",28275.643,6.00,6,0.100,18118.000,0.200,1083.000,0.300,103.000,0.500,11.000,1.000,0,5.000,0
"03/09/08","07:08:09",19509.000,"cc",28291.127,6.00,6,0.100,18291.000,0.200,1123.000,0.300,85.000,0.500,10.000,1.000,0,5.000,0
"03/09/08","07:08:15",19502.000,"cc",28298.748,6.00,6,0.100,18285.000,0.200,1104.000,0.300,83.000,0.500,30.000,1.000,0,5.000,0
"03/09/08","07:08:21",18984.000,"cc",28350.193,6.00,6,0.100,17843.000,0.200,1030.000,0.300,84.000,0.500,25.000,1.000,2.000,5.000,0
"03/09/08","07:08:27",19080.000,"cc",28405.541,6.00,6,0.100,17977.000,0.200,994.000,0.300,96.000,0.500,13.000,1.000,0,5.000,0
"03/09/08","07:08:33",19317.000,"cc",28261.309,6.00,6,0.100,18116.000,0.200,1104.000,0.300,88.000,0.500,9.000,1.000,0,5.000,0
"03/09/08","07:08:39",18929.000,"cc",28288.842,6.00,6,0.100,17825.000,0.200,1003.000,0.300,93.000,0.500,7.000,1.000,1.000,5.000,0
"03/09/08","07:08:45",18942.000,"cc",28287.758,6.00,6,0.100,17788.000,0.200,1034.000,0.300,103.000,0.500,17.000,1.000,0,5.000,0
"03/09/08","07:08:51",19211.000,"cc",28382.398,6.00,6,0.100,18026.000,0.200,1080.000,0.300,92.000,0.500,13.000,1.000,0,5.000,0
"03/09/08","07:08:57",18837.000,"cc",28382.471,6.00,6,0.100,17783.000,0.200,958.000,0.300,86.000,0.500,8.000,1.000,2.000,5.000,0
"03/09/08","07:09:03",18608.000,"cc",28279.664,6.00,6,0.100,17529.000,0.200,999.000,0.300,72.000,0.500,8.000,1.000,0,5.000,0
"03/09/08","07:09:09",18615.000,"cc",28273.809,6.00,6,0.100,17497.000,0.200,1019.000,0.300,86.000,0.500,13.000,1.000,0,5.000,0
"03/09/08","07:09:15",19241.000,"cc",28285.434,6.00,6,0.100,18033.000,0.200,1066.000,0.300,126.000,0.500,14.000,1.000,2.000,5.000,0
"03/09/08","07:09:21",18825.000,"cc",28275.615,6.00,6,0.100,17770.000,0.200,962.000,0.300,82.000,0.500,11.000,1.000,0,5.000,0
"03/09/08","07:09:27",19333.000,"cc",28337.938,6.00,6,0.100,18138.000,0.200,1072.000,0.300,111.000,0.500,12.000,1.000,0,5.000,0
"03/09/08","07:09:33",18940.000,"cc",28259.822,6.00,6,0.100,17764.000,0.200,1076.000,0.300,82.000,0.500,18.000,1.000,0,5.000,0
"03/09/08","07:09:39",18888.000,"cc",28384.018,6.00,6,0.100,17758.000,0.200,1009.000,0.300,104.000,0.500,17.000,1.000,0,5.000,0
"03/09/08","07:09:45",18782.000,"cc",28341.434,6.00,6,0.100,17674.000,0.200,996.000,0.300,95.000,0.500,16.000,1.000,1.000,5.000,0
"03/09/08","07:09:51",18676.000,"cc",28381.742,6.00,6,0.100,17607.000,0.200,953.000,0.300,106.000,0.500,9.000,1.000,1.000,5.000,0
"03/09/08","07:09:57",18663.000,"cc",28334.482,6.00,6,0.100,17536.000,0.200,1002.000,0.300,100.000,0.500,25.000,1.000,0,5.000,0
"03/09/08","07:10:03",18569.000,"cc",28270.242,6.00,6,0.100,17474.000,0.200,1011.000,0.300,74.000,0.500,10.000,1.000,0,5.000,0
"03/09/08","07:10:09",18446.000,"cc",28288.320,6.00,6,0.100,17375.000,0.200,978.000,0.300,81.000,0.500,12.000,1.000,0,5.000,0
"03/09/08","07:10:15",18186.000,"cc",28338.897,6.00,6,0.100,17061.000,0.200,1001.000,0.300,102.000,0.500,20.000,1.000,2.000,5.000,0
"03/09/08","07:10:21",18554.000,"cc",28365.361,6.00,6,0.100,17467.000,0.200,965.000,0.300,99.000,0.500,23.000,1.000,0,5.000,0
"03/09/08","07:10:27",17771.000,"cc",28351.365,6.00,6,0.100,16711.000,0.200,947.000,0.300,100.000,0.500,12.000,1.000,1.000,5.000,0
"03/09/08","07:10:33",18590.000,"cc",28324.764,6.00,6,0.100,17468.000,0.200,985.000,0.300,119.000,0.500,17.000,1.000,1.000,5.000,0
"03/09/08","07:10:39",17491.000,"cc",28471.100,6.00,6,0.100,16511.000,0.200,890.000,0.300,82.000,0.500,8.000,1.000,0,5.000,0
"03/09/08","07:10:45",18010.000,"cc",28326.084,6.00,6,0.100,16871.000,0.200,1026.000,0.300,101.000,0.500,12.000,1.000,0,5.000,0
"03/09/08","07:10:51",18340.000,"cc",28298.285,6.00,6,0.100,17181.000,0.200,1022.000,0.300,112.000,0.500,25.000,1.000,0,5.000,0
"03/09/08","07:10:57",18028.000,"cc",28346.793,6.00,6,0.100,16921.000,0.200,990.000,0.300,99.000,0.500,17.000,1.000,1.000,5.000,0
"03/09/08","07:11:03",17572.000,"cc",28403.514,6.00,6,0.100,16502.000,0.200,954.000,0.300,96.000,0.500,18.000,1.000,2.000,5.000,0
"03/09/08","07:11:09",17743.000,"cc",28282.588,6.00,6,0.100,16680.000,0.200,934.000,0.300,105.000,0.500,24.000,1.000,0,5.000,0
"03/09/08","07:11:15",16799.000,"cc",28332.967,6.00,6,0.100,15902.000,0.200,819.000,0.300,67.000,0.500,10.000,1.000,1.000,5.000,0
"03/09/08","07:11:21",17567.000,"cc",28297.445,6.00,6,0.100,16567.000,0.200,887.000,0.300,94.000,0.500,17.000,1.000,2.000,5.000,0
"03/09/08","07:11:27",17758.000,"cc",28243.182,6.00,6,0.100,16727.000,0.200,924.000,0.300,95.000,0.500,12.000,1.000,0,5.000,0
"03/09/08","07:11:33",18344.000,"cc",28226.885,6.00,6,0.100,17238.000,0.200,999.000,0.300,86.000,0.500,20.000,1.000,1.000,5.000,0
"03/09/08","07:11:39",17477.000,"cc",28324.779,6.00,6,0.100,16459.000,0.200,904.000,0.300,100.000,0.500,13.000,1.000,1.000,5.000,0
"03/09/08","07:11:45",17731.000,"cc",28360.115,6.00,6,0.100,16752.000,0.200,880.000,0.300,85.000,0.500,14.000,1.000,0,5.000,0
"03/09/08","07:11:51",17258.000,"cc",28312.592,6.00,6,0.100,16282.000,0.200,896.000,0.300,73.000,0.500,7.000,1.000,0,5.000,0
"03/09/08","07:11:57",17640.000,"cc",28377.490,6.00,6,0.100,16537.000,0.200,960.000,0.300,119.000,0.500,24.000,1.000,0,5.000,0
"03/09/08","07:12:03",17015.000,"cc",28304.717,6.00,6,0.100,16063.000,0.200,864.000,0.300,79.000,0.500,8.000,1.000,1.000,5.000,0
"03/09/08","07:12:09",17786.000,"cc",28304.223,6.00,6,0.100,16658.000,0.200,1002.000,0.300,111.000,0.500,15.000,1.000,0,5.000,0
"03/09/08","07:12:15",17406.000,"cc",28349.350,6.00,6,0.100,16422.000,0.200,909.000,0.300,67.000,0.500,8.000,1.000,0,5.000,0
"03/09/08","07:12:21",17382.000,"cc",28294.928,6.00,6,0.100,16441.000,0.200,855.000,0.300,75.000,0.500,10.000,1.000,1.000,5.000,0
"03/09/08","07:12:27",17292.000,"cc",28323.695,6.00,6,0.100,16221.000,0.200,952.000,0.300,103.000,0.500,16.000,1.000,0,5.000,0
"03/09/08","07:12:33",16937.000,"cc",28333.436,6.00,6,0.100,16013.000,0.200,829.000,0.300,83.000,0.500,12.000,1.000,0,5.000,0
"03/09/08","07:12:39",16980.000,"cc",28325.184,6.00,6,0.100,16031.000,0.200,860.000,0.300,78.000,0.500,11.000,1.000,0,5.000,0
"03/09/08","07:12:45",17508.000,"cc",28326.332,6.00,6,0.100,16431.000,0.200,963.000,0.300,98.000,0.500,15.000,1.000,1.000,5.000,0
"03/09/08","07:12:51",17591.000,"cc",28300.779,6.00,6,0.100,16532.000,0.200,933.000,0.300,99.000,0.500,26.000,1.000,1.000,5.000,0
"03/09/08","07:12:57",16437.000,"cc",28311.988,6.00,6,0.100,15507.000,0.200,851.000,0.300,71.000,0.500,8.000,1.000,0,5.000,0
"03/09/08","07:13:03",17224.000,"cc",28310.258,6.00,6,0.100,16249.000,0.200,877.000,0.300,83.000,0.500,15.000,1.000,0,5.000,0
"03/09/08","07:13:09",17084.000,"cc",28371.113,6.00,6,0.100,16097.000,0.200,871.000,0.300,100.000,0.500,16.000,1.000,0,5.000,0
"03/09/08","07:13:15",16967.000,"cc",28271.617,6.00,6,0.100,15997.000,0.200,866.000,0.300,89.000,0.500,15.000,1.000,0,5.000,0
"03/09/08","07:13:21",16743.000,"cc",28419.664,6.00,6,0.100,15820.000,0.200,832.000,0.300,81.000,0.500,10.000,1.000,0,5.000,0
"03/09/08","07:13:27",16884.000,"cc",28281.205,6.00,6,0.100,15982.000,0.200,800.000,0.300,90.000,0.500,12.000,1.000,0,5.000,0
"03/09/08","07:13:33",17574.000,"cc",28238.559,6.00,6,0.100,16499.000,0.200,919.000,0.300,127.000,0.500,28.000,1.000,1.000,5.000,0
"03/09/08","07:13:39",17484.000,"cc",28286.531,6.00,6,0.100,16441.000,0.200,934.000,0.300,99.000,0.500,9.000,1.000,1.000,5.000,0
"03/09/08","07:13:45",17609.000,"cc",28321.768,6.00,6,0.100,16587.000,0.200,924.000,0.300,89.000,0.500,9.000,1.000,0,5.000,0
"03/09/08","07:13:51",17120.000,"cc",28391.914,6.00,6,0.100,16107.000,0.200,907.000,0.300,96.000,0.500,10.000,1.000,0,5.000,0
"03/09/08","07:13:57",16762.000,"cc",28217.516,6.00,6,0.100,15834.000,0.200,829.000,0.300,89.000,0.500,10.000,1.000,0,5.000,0
"03/09/08","07:14:03",17029.000,"cc",28315.199,6.00,6,0.100,16009.000,0.200,903.000,0.300,99.000,0.500,18.000,1.000,0,5.000,0
"03/09/08","07:14:09",16598.000,"cc",28277.514,6.00,6,0.100,15711.000,0.200,809.000,0.300,65.000,0.500,13.000,1.000,0,5.000,0
"03/09/08","07:14:15",17371.000,"cc",28319.352,6.00,6,0.100,16367.000,0.200,885.000,0.300,103.000,0.500,16.000,1.000,0,5.000,0
"03/09/08","07:14:21",16836.000,"cc",28270.182,6.00,6,0.100,15806.000,0.200,906.000,0.300,106.000,0.500,18.000,1.000,0,5.000,0
"03/09/08","07:14:27",17079.000,"cc",28299.252,6.00,6,0.100,16054.000,0.200,923.000,0.300,84.000,0.500,18.000,1.000,0,5.000,0
"03/09/08","07:14:33",16814.000,"cc",28347.068,6.00,6,0.100,15853.000,0.200,854.000,0.300,92.000,0.500,15.000,1.000,0,5.000,0
"03/09/08","07:14:39",16740.000,"cc",28280.367,6.00,6,0.100,15833.000,0.200,831.000,0.300,67.000,0.500,9.000,1.000,0,5.000,0
"03/09/08","07:14:45",17257.000,"cc",28340.201,6.00,6,0.100,16256.000,0.200,873.000,0.300,106.000,0.500,20.000,1.000,2.000,5.000,0
"03/09/08","07:14:51",16690.000,"cc",28280.322,6.00,6,0.100,15733.000,0.200,852.000,0.300,88.000,0.500,17.000,1.000,0,5.000,0
"03/09/08","07:14:57",16249.000,"cc",28305.463,6.00,6,0.100,15315.000,0.200,858.000,0.300,67.000,0.500,9.000,1.000,0,5.000,0
"03/09/08","07:15:03",16287.000,"cc",28292.484,6.00,6,0.100,15393.000,0.200,796.000,0.300,81.000,0.500,16.000,1.000,1.000,5.000,0
"03/09/08","07:15:09",16971.000,"cc",28334.818,6.00,6,0.100,15956.000,0.200,896.000,0.300,100.000,0.500,19.000,1.000,0,5.000,0
"03/09/08","07:15:15",16568.000,"cc",28371.158,6.00,6,0.100,15538.000,0.200,875.000,0.300,126.000,0.500,28.000,1.000,1.000,5.000,0
"03/09/08","07:15:21",16853.000,"cc",28353.150,6.00,6,0.100,15795.000,0.200,914.000,0.300,117.000,0.500,25.000,1.000,2.000,5.000,0
"03/09/08","07:15:27",16234.000,"cc",28284.350,6.00,6,0.100,15309.000,0.200,824.000,0.300,89.000,0.500,12.000,1.000,0,5.000,0
"03/09/08","07:15:33",16525.000,"cc",28289.916,6.00,6,0.100,15574.000,0.200,846.000,0.300,94.000,0.500,10.000,1.000,1.000,5.000,0
"03/09/08","07:15:39",15840.000,"cc",28271.861,6.00,6,0.100,14998.000,0.200,760.000,0.300,67.000,0.500,15.000,1.000,0,5.000,0
"03/09/08","07:15:45",15824.000,"cc",28411.010,6.00,6,0.100,14915.000,0.200,803.000,0.300,92.000,0.500,13.000,1.000,1.000,5.000,0
"03/09/08","07:15:51",15928.000,"cc",28407.158,6.00,6,0.100,15065.000,0.200,774.000,0.300,79.000,0.500,10.000,1.000,0,5.000,0
"03/09/08","07:15:57",15902.000,"cc",28220.883,6.00,6,0.100,15003.000,0.200,787.000,0.300,94.000,0.500,18.000,1.000,0,5.000,0
"03/09/08","07:16:03",16273.000,"cc",28295.660,6.00,6,0.100,15370.000,0.200,801.000,0.300,82.000,0.500,19.000,1.000,1.000,5.000,0
"03/09/08","07:16:09",15386.000,"cc",28361.055,6.00,6,0.100,14555.000,0.200,770.000,0.300,56.000,0.500,5.000,1.000,0,5.000,0
"03/09/08","07:16:15",15732.000,"cc",28272.518,6.00,6,0.100,14877.000,0.200,774.000,0.300,69.000,0.500,12.000,1.000,0,5.000,0
"03/09/08","07:16:21",16136.000,"cc",28294.994,6.00,6,0.100,15213.000,0.200,804.000,0.300,101.000,0.500,17.000,1.000,1.000,5.000,0
"03/09/08","07:16:27",16421.000,"cc",28365.994,6.00,6,0.100,15442.000,0.200,852.000,0.300,113.000,0.500,12.000,1.000,2.000,5.000,0
"03/09/08","07:16:33",16246.000,"cc",28335.404,6.00,6,0.100,15275.000,0.200,836.000,0.300,114.000,0.500,20.000,1.000,1.000,5.000,0
"03/09/08","07:16:39",16036.000,"cc",28320.113,6.00,6,0.100,15153.000,0.200,796.000,0.300,76.000,0.500,11.000,1.000,0,5.000,0
"03/09/08","07:16:45",15333.000,"cc",28391.100,6.00,6,0.100,14450.000,0.200,793.000,0.300,76.000,0.500,13.000,1.000,1.000,5.000,0
"03/09/08","07:16:51",15865.000,"cc",28315.961,6.00,6,0.100,15046.000,0.200,741.000,0.300,68.000,0.500,10.000,1.000,0,5.000,0
"03/09/08","07:16:57",15725.000,"cc",28271.629,6.00,6,0.100,14903.000,0.200,753.000,0.300,64.000,0.500,5.000,1.000,0,5.000,0
"03/09/08","07:17:03",14042.000,"cc",28294.844,6.00,6,0.100,13380.000,0.200,602.000,0.300,51.000,0.500,9.000,1.000,0,5.000,0
"03/09/08","07:17:09",15653.000,"cc",28354.414,6.00,6,0.100,14816.000,0.200,735.000,0.300,88.000,0.500,14.000,1.000,0,5.000,0